H1 CPF 2 NER 2022 7 5 9 186 01 glonass129 H2 1106402 9129 37868 2022 7 5 0 0 0 2022 7 8 23 45 0 900 1 1 0 0 0 1 H9 10 0 59765 0.00000 0 24076936.162 8348526.102 -201778.031 10 0 59765 900.00000 0 23901535.452 8142100.734 -3408024.515 10 0 59765 1800.00000 0 23330390.994 7860847.009 -6547833.404 10 0 59765 2700.00000 0 22365826.119 7560838.315 -9559939.606 10 0 59765 3600.00000 0 21023519.484 7297268.713 -12385527.763 10 0 59765 4500.00000 0 19331988.609 7121890.029 -14969399.814 10 0 59765 5400.00000 0 17331544.916 7080602.502 -17261072.163 10 0 59765 6300.00000 0 15072763.491 7211303.533 -19215779.135 10 0 59765 7200.00000 0 12614531.880 7542087.943 -20795361.462 10 0 59765 8100.00000 0 10021760.361 8089877.929 -21969021.247 10 0 59765 9000.00000 0 7362850.613 8859542.151 -22713927.921 10 0 59765 9900.00000 0 4707030.017 9843542.111 -23015663.016 10 0 59765 10800.00000 0 2121664.165 11022121.089 -22868495.334 10 0 59765 11700.00000 0 -330339.351 12364027.458 -22275481.677 10 0 59765 12600.00000 0 -2592927.002 13827741.150 -21248392.137 10 0 59765 13500.00000 0 -4618995.611 15363150.645 -19807462.575 10 0 59765 14400.00000 0 -6372102.359 16913608.689 -17980980.426 10 0 59765 15300.00000 0 -7827718.813 18418279.061 -15804713.349 10 0 59765 16200.00000 0 -8973979.005 19814674.644 -13321193.268 10 0 59765 17100.00000 0 -9811893.191 21041279.393 -10578871.052 10 0 59765 18000.00000 0 -10355021.536 22040143.578 -7631159.605 10 0 59765 18900.00000 0 -10628624.759 22759343.380 -4535384.997 10 0 59765 19800.00000 0 -10668330.548 23155202.059 -1351666.815 10 0 59765 20700.00000 0 -10518374.564 23194180.354 1858249.884 10 0 59765 21600.00000 0 -10229492.239 22854358.087 5032188.213 10 0 59765 22500.00000 0 -9856551.633 22126446.221 8108735.737 10 0 59765 23400.00000 0 -9456027.725 21014288.452 11028420.707 10 0 59765 24300.00000 0 -9083424.536 19534832.559 13734846.523 10 0 59765 25200.00000 0 -8790752.930 17717573.584 16175763.807 10 0 59765 26100.00000 0 -8624169.150 15603492.460 18304060.912 10 0 59765 27000.00000 0 -8621871.986 13243534.067 20078655.551 10 0 59765 27900.00000 0 -8812345.617 10696687.077 21465272.145 10 0 59765 28800.00000 0 -9213020.781 8027743.939 22437091.508 10 0 59765 29700.00000 0 -9829409.818 5304831.862 22975261.737 10 0 59765 30600.00000 0 -10654751.927 2596814.802 23069261.402 10 0 59765 31500.00000 0 -11670184.228 -29328.374 22717108.389 10 0 59765 32400.00000 0 -12845433.018 -2511043.353 21925410.160 10 0 59765 33300.00000 0 -14139998.396 -4792554.383 20709253.594 10 0 59765 34200.00000 0 -15504785.181 -6826936.737 19091935.109 10 0 59765 35100.00000 0 -16884114.545 -8577822.632 17104534.403 10 0 59765 36000.00000 0 -18218034.597 -10020670.017 14785337.842 10 0 59765 36900.00000 0 -19444835.154 -11143541.068 12179120.382 10 0 59765 37800.00000 0 -20503662.578 -11947357.112 9336297.776 10 0 59765 38700.00000 0 -21337125.419 -12445618.268 6311963.597 10 0 59765 39600.00000 0 -21893780.896 -12663598.339 3164828.464 10 0 59765 40500.00000 0 -22130396.336 -12637047.793 -43918.669 10 0 59765 41400.00000 0 -22013888.259 -12410458.828 -3251805.142 10 0 59765 42300.00000 0 -21522854.831 -12034965.563 -6396301.174 10 0 59765 43200.00000 0 -20648634.246 -11565968.602 -9416053.368 10 0 59765 44100.00000 0 -19395841.588 -11060585.591 -12252099.486 10 0 59765 45000.00000 0 -17782359.059 -10575037.343 -14849038.775 10 0 59765 45900.00000 0 -15838778.000 -10162082.298 -17156133.067 10 0 59765 46800.00000 0 -13607314.796 -9868610.229 -19128315.274 10 0 59765 47700.00000 0 -11140245.685 -9733499.278 -20727083.889 10 0 59765 48600.00000 0 -8497926.173 -9785828.977 -21921264.830 10 0 59765 49500.00000 0 -5746478.600 -10043526.367 -22687624.972 10 0 59765 50400.00000 0 -2955245.697 -10512503.390 -23011325.062 10 0 59765 51300.00000 0 -194117.559 -11186322.361 -22886203.357 10 0 59765 52200.00000 0 2469155.396 -12046403.393 -22314885.029 10 0 59765 53100.00000 0 4971550.678 -13062764.233 -21308716.084 10 0 59765 54000.00000 0 7257155.181 -14195260.173 -19887524.282 10 0 59765 54900.00000 0 9279241.101 -15395270.364 -18079212.985 10 0 59765 55800.00000 0 11001950.897 -16607757.977 -15919197.311 10 0 59765 56700.00000 0 12401522.953 -17773616.053 -13449694.974 10 0 59765 57600.00000 0 13467009.281 -18832199.121 -10718886.952 10 0 59765 58500.00000 0 14200458.190 -19723933.168 -7779965.646 10 0 59765 59400.00000 0 14616557.523 -20392893.771 -4690090.063 10 0 59765 60300.00000 0 14741756.663 -20789244.036 -1509269.156 10 0 59765 61200.00000 0 14612907.094 -20871430.348 1700804.353 10 0 59765 62100.00000 0 14275481.215 -20608044.581 4877946.868 10 0 59765 63000.00000 0 13781446.191 -19979275.740 7960680.593 10 0 59765 63900.00000 0 13186883.395 -18977891.383 10889411.266 10 0 59765 64800.00000 0 12549454.033 -17609708.870 13607565.177 10 0 59765 65700.00000 0 11925817.149 -15893537.557 16062664.801 10 0 59765 66600.00000 0 11369107.667 -13860594.820 18207323.777 10 0 59765 67500.00000 0 10926579.054 -11553420.060 20000143.831 10 0 59765 68400.00000 0 10637508.059 -9024331.111 21406498.135 10 0 59765 69300.00000 0 10531447.983 -6333485.823 22399187.606 10 0 59765 70200.00000 0 10626902.580 -3546627.260 22958958.914 10 0 59765 71100.00000 0 10930475.557 -732603.586 23074875.151 10 0 59765 72000.00000 0 11436531.352 2039237.157 22744532.425 10 0 59765 72900.00000 0 12127382.209 4701672.127 21974117.990 10 0 59765 73800.00000 0 12973995.170 7192142.287 20778307.967 10 0 59765 74700.00000 0 13937191.408 9455101.155 19180005.232 10 0 59765 75600.00000 0 14969289.984 11444077.654 17209920.666 10 0 59765 76500.00000 0 16016129.490 13123368.012 14906003.653 10 0 59765 77400.00000 0 17019384.911 14469286.200 12312730.617 10 0 59765 78300.00000 0 17919083.972 15470920.193 9480263.178 10 0 59765 79200.00000 0 18656218.101 16130361.370 6463490.343 10 0 59765 80100.00000 0 19175338.082 16462396.158 3320972.017 10 0 59765 81000.00000 0 19427024.176 16493671.642 113803.561 10 0 59765 81900.00000 0 19370124.825 16261369.242 -3095576.665 10 0 59765 82800.00000 0 18973667.116 15811441.826 -6244612.891 10 0 59765 83700.00000 0 18218355.558 15196488.714 -9271865.672 10 0 59765 84600.00000 0 17097592.960 14473359.050 -12118228.144 10 0 59765 85500.00000 0 15617977.521 13700586.172 -14728099.061 10 0 59766 0.00000 0 13799252.905 12935763.321 -17050487.620 10 0 59766 900.00000 0 11673710.439 12232973.367 -19040027.781 10 0 59766 1800.00000 0 9285069.938 11640384.382 -20657877.526 10 0 59766 2700.00000 0 6686882.352 11198113.306 -21872488.449 10 0 59766 3600.00000 0 3940523.696 10936450.566 -22660226.628 10 0 59766 4500.00000 0 1112863.968 10874521.286 -23005833.624 10 0 59766 5400.00000 0 -1726290.448 11019440.038 -22902718.546 10 0 59766 6300.00000 0 -4506873.178 11365994.581 -22353076.023 10 0 59766 7200.00000 0 -7161240.511 11896871.076 -21367828.699 10 0 59766 8100.00000 0 -9626748.069 12583409.960 -19966396.516 10 0 59766 9000.00000 0 -11848114.225 13386858.942 -18176298.572 10 0 59766 9900.00000 0 -13779472.397 14260068.506 -16032596.788 10 0 59766 10800.00000 0 -15386028.099 15149556.633 -13577193.579 10 0 59766 11700.00000 0 -16645253.637 15997854.138 -10857998.569 10 0 59766 12600.00000 0 -17547573.079 16746030.477 -7927981.868 10 0 59766 13500.00000 0 -18096511.825 17336292.752 -4844133.366 10 0 59766 14400.00000 0 -18308307.644 17714548.060 -1666349.104 10 0 59766 15300.00000 0 -18211002.453 17832821.403 1543732.993 10 0 59766 16200.00000 0 -17843055.707 17651427.953 4723925.256 10 0 59766 17100.00000 0 -17251539.830 17140809.229 7812687.309 10 0 59766 18000.00000 0 -16489995.000 16282957.092 10750305.281 10 0 59766 18900.00000 0 -15616034.219 15072366.920 13480031.341 10 0 59766 19800.00000 0 -14688799.277 13516480.859 15949162.839 10 0 59766 20700.00000 0 -13766373.745 11635603.145 18110041.688 10 0 59766 21600.00000 0 -12903260.343 9462291.003 19920956.511 10 0 59766 22500.00000 0 -12148026.884 7040245.816 21346931.941 10 0 59766 23400.00000 0 -11541217.759 4422749.447 22360391.460 10 0 59766 24300.00000 0 -11113616.907 1670708.764 22941682.459 10 0 59766 25200.00000 0 -10884933.796 -1149612.935 23079454.333 10 0 59766 26100.00000 0 -10862966.834 -3969086.180 22770882.766 10 0 59766 27000.00000 0 -11043279.261 -6718326.888 22021735.696 10 0 59766 27900.00000 0 -11409401.884 -9330323.697 20846278.889 10 0 59766 28800.00000 0 -11933555.549 -11742974.313 19267021.563 10 0 59766 29700.00000 0 -12577864.946 -13901427.374 17314305.141 10 0 59766 30600.00000 0 -13296014.930 -15760133.575 15025740.885 10 0 59766 31500.00000 0 -14035281.870 -17284520.847 12445505.069 10 0 59766 32400.00000 0 -14738856.376 -18452223.433 9623503.127 10 0 59766 33300.00000 0 -15348360.793 -19253812.477 6614417.075 10 0 59766 34200.00000 0 -15806455.782 -19692996.199 3476653.359 10 0 59766 35100.00000 0 -16059425.589 -19786279.804 271210.723 10 0 59766 36000.00000 0 -16059631.528 -19562098.100 -2939510.018 10 0 59766 36900.00000 0 -15767727.963 -19059456.368 -6092930.533 10 0 59766 37800.00000 0 -15154544.543 -18326136.354 -9127528.898 10 0 59766 38700.00000 0 -14202552.168 -17416543.323 -11984057.261 10 0 59766 39600.00000 0 -12906847.816 -16389285.925 -14606717.523 10 0 59766 40500.00000 0 -11275613.897 -15304592.526 -16944270.157 10 0 59766 41400.00000 0 -9330030.400 -14221674.960 -18951052.618 10 0 59766 42300.00000 0 -7103641.882 -13196153.003 -20587885.754 10 0 59766 43200.00000 0 -4641204.822 -12277650.264 -21822849.270 10 0 59766 44100.00000 0 -1997063.316 -11507664.539 -22631910.312 10 0 59766 45000.00000 0 766878.552 -10917803.591 -22999392.492 10 0 59766 45900.00000 0 3583502.238 -10528461.266 -22918276.362 10 0 59766 46800.00000 0 6383039.362 -10347989.550 -22390325.999 10 0 59766 47700.00000 0 9095747.394 -10372400.617 -21426040.107 10 0 59766 48600.00000 0 11654584.231 -10585610.010 -20044429.723 10 0 59766 49500.00000 0 13997769.878 -10960208.834 -18272628.149 10 0 59766 50400.00000 0 16071128.627 -11458730.319 -16145342.142 10 0 59766 51300.00000 0 17830114.996 -12035355.144 -13704156.453 10 0 59766 52200.00000 0 19241440.395 -12637981.593 -10996706.607 10 0 59766 53100.00000 0 20284234.652 -13210571.437 -8075737.339 10 0 59766 54000.00000 0 20950696.425 -13695671.272 -4998066.064 10 0 59766 54900.00000 0 21246208.142 -14037002.125 -1823472.366 10 0 59766 55800.00000 0 21188913.526 -14182007.848 1386464.257 10 0 59766 56700.00000 0 20808778.202 -14084255.078 4569555.645 10 0 59766 57600.00000 0 20146175.150 -13705584.325 7664202.253 10 0 59766 58500.00000 0 19250056.137 -13017922.561 10610573.729 10 0 59766 59400.00000 0 18175786.997 -12004682.162 13351750.878 10 0 59766 60300.00000 0 16982737.888 -10661688.367 15834808.254 10 0 59766 61200.00000 0 15731729.183 -8997597.042 18011817.923 10 0 59766 62100.00000 0 14482439.006 -7033785.405 19840756.826 10 0 59766 63000.00000 0 13290879.431 -4803719.800 21286302.037 10 0 59766 63900.00000 0 12207045.174 -2351825.787 22320500.168 10 0 59766 64800.00000 0 11272831.325 268094.200 22923299.494 10 0 59766 65700.00000 0 10520305.497 2994832.263 23082935.525 10 0 59766 66600.00000 0 9970405.505 5762056.312 22796162.997 10 0 59766 67500.00000 0 9632116.375 8500809.537 22068329.712 10 0 59766 68400.00000 0 9502161.172 11142127.273 20913290.004 10 0 59766 69300.00000 0 9565219.343 13619665.218 19353158.133 10 0 59766 70200.00000 0 9794664.718 15872231.921 17417904.582 10 0 59766 71100.00000 0 10153793.906 17846121.710 15144800.856 10 0 59766 72000.00000 0 10597495.356 19497151.438 12577721.297 10 0 59766 72900.00000 0 11074290.577 20792315.995 9766313.242 10 0 59766 73800.00000 0 11528662.916 21710992.600 6765049.680 10 0 59766 74700.00000 0 11903576.376 22245642.014 3632181.442 10 0 59766 75600.00000 0 12143078.086 22401975.745 428608.418 10 0 59766 76500.00000 0 12194873.547 22198580.524 -2783308.417 10 0 59766 77400.00000 0 12012764.089 21666014.488 -5940970.473 10 0 59766 78300.00000 0 11558841.074 20845412.197 -8982775.593 10 0 59766 79200.00000 0 10805341.232 19786657.005 -11849337.087 10 0 59766 80100.00000 0 9736081.697 18546198.178 -14484662.024 10 0 59766 81000.00000 0 8347411.162 17184605.867 -16837263.831 10 0 59766 81900.00000 0 6648634.347 15763968.511 -18861185.610 10 0 59766 82800.00000 0 4661889.806 14345244.253 -20516912.451 10 0 59766 83700.00000 0 2421484.695 12985679.843 -21772153.658 10 0 59766 84600.00000 0 -27286.423 11736407.439 -22602478.804 10 0 59766 85500.00000 0 -2629789.293 10640321.783 -22991794.744 10 0 59767 0.00000 0 -5324094.693 9730327.841 -22932654.486 10 0 59767 900.00000 0 -8043335.395 9028032.169 -22426392.244 10 0 59767 1800.00000 0 -10718272.374 8542933.502 -21483083.116 10 0 59767 2700.00000 0 -13279967.184 8272143.598 -20121329.180 10 0 59767 3600.00000 0 -15662444.852 8200649.363 -18367877.461 10 0 59767 4500.00000 0 -17805237.443 8302102.382 -16257078.668 10 0 59767 5400.00000 0 -19655702.366 8540100.147 -13830198.649 10 0 59767 6300.00000 0 -21171019.634 8869902.491 -11134597.298 10 0 59767 7200.00000 0 -22319786.186 9240508.601 -8222792.210 10 0 59767 8100.00000 0 -23083142.734 9597005.107 -5151426.389 10 0 59767 9000.00000 0 -23455388.454 9883084.797 -1980160.872 10 0 59767 9900.00000 0 -23444060.419 10043628.914 1229485.489 10 0 59767 10800.00000 0 -23069477.089 10027243.862 4415326.392 10 0 59767 11700.00000 0 -22363767.400 9788645.667 7515705.617 10 0 59767 12600.00000 0 -21369428.079 9290792.428 10470678.943 10 0 59767 13500.00000 0 -20137471.038 8506675.941 13223158.530 10 0 59767 14400.00000 0 -18725239.067 7420698.110 15719998.900 10 0 59767 15300.00000 0 -17193981.238 6029575.177 17913005.020 10 0 59767 16200.00000 0 -15606288.632 4342732.255 19759844.802 10 0 59767 17100.00000 0 -14023496.239 2382171.437 21224850.217 10 0 59767 18000.00000 0 -12503157.780 181818.250 22279693.212 10 0 59767 18900.00000 0 -11096696.929 -2213627.882 22903924.835 10 0 59767 19800.00000 0 -9847330.983 -4750293.478 23085368.226 10 0 59767 20700.00000 0 -8788352.071 -7367117.182 22820358.297 10 0 59767 21600.00000 0 -7941836.385 -9998142.784 22113823.432 10 0 59767 22500.00000 0 -7317834.826 -12575026.861 20979206.814 10 0 59767 23400.00000 0 -6914078.963 -15029659.610 19438227.613 10 0 59767 24300.00000 0 -6716215.341 -17296792.378 17520484.809 10 0 59767 25200.00000 0 -6698559.496 -19316564.311 15262909.171 10 0 59767 26100.00000 0 -6825339.588 -21036823.765 12709071.744 10 0 59767 27000.00000 0 -7052378.920 -22415147.800 9908360.053 10 0 59767 27900.00000 0 -7329147.849 -23420474.714 6915036.035 10 0 59767 28800.00000 0 -7601099.498 -24034279.933 3787192.604 10 0 59767 29700.00000 0 -7812190.880 -24251244.265 585628.262 10 0 59767 30600.00000 0 -7907482.338 -24079384.548 -2627338.611 10 0 59767 31500.00000 0 -7835704.069 -23539639.403 -5789092.104 10 0 59767 32400.00000 0 -7551679.048 -22664926.115 -8837952.943 10 0 59767 33300.00000 0 -7018497.248 -21498707.489 -11714398.852 10 0 59767 34200.00000 0 -6209346.261 -20093128.844 -14362245.386 10 0 59767 35100.00000 0 -5108917.924 -18506804.161 -16729762.233 10 0 59767 36000.00000 0 -3714328.707 -16802345.667 -18770701.328 10 0 59767 36900.00000 0 -2035512.643 -15043742.436 -20445214.934 10 0 59767 37800.00000 0 -95068.387 -13293700.036 -21720644.532 10 0 59767 38700.00000 0 2072434.426 -11611054.754 -22572164.234 10 0 59767 39600.00000 0 4421660.871 -10048372.521 -22983265.754 10 0 59767 40500.00000 0 6898177.934 -8649834.242 -22946075.572 10 0 59767 41400.00000 0 9440512.931 -7449496.563 -22461498.598 10 0 59767 42300.00000 0 11982516.181 -6470000.596 -21539186.379 10 0 59767 43200.00000 0 14455928.350 -5721781.575 -20197331.577 10 0 59767 44100.00000 0 16793044.480 -5202810.684 -18462294.014 10 0 59767 45000.00000 0 18929362.853 -4898877.545 -16368066.961 10 0 59767 45900.00000 0 20806108.105 -4784398.698 -13955595.496 10 0 59767 46800.00000 0 22372523.611 -4823715.207 -11271961.553 10 0 59767 47700.00000 0 23587838.361 -4972822.001 -8369452.814 10 0 59767 48600.00000 0 24422827.663 -5181453.670 -5304534.696 10 0 59767 49500.00000 0 24860904.389 -5395436.764 -2136746.221 10 0 59767 50400.00000 0 24898697.349 -5559208.079 1072458.072 10 0 59767 51300.00000 0 24546095.020 -5618391.917 4260897.462 10 0 59767 52200.00000 0 23825755.075 -5522327.517 7366862.684 10 0 59767 53100.00000 0 22772102.249 -5226440.532 10330299.076 10 0 59767 54000.00000 0 21429858.004 -4694359.408 13093953.262 10 0 59767 54900.00000 0 19852164.371 -3899688.555 15604462.471 10 0 59767 55800.00000 0 18098380.591 -2827364.734 17813366.878 10 0 59767 56700.00000 0 16231644.052 -1474540.337 19678027.242 10 0 59767 57600.00000 0 14316296.121 149043.271 21162431.881 10 0 59767 58500.00000 0 12415278.560 2021208.385 22237879.088 10 0 59767 59400.00000 0 10587607.011 4108014.348 22883523.286 10 0 59767 60300.00000 0 8886024.665 6364925.478 23086775.419 10 0 59767 61200.00000 0 7354931.928 8738427.230 22843550.347 10 0 59767 62100.00000 0 6028676.689 11168026.210 22158356.386 10 0 59767 63000.00000 0 4930275.337 13588553.910 21044224.550 10 0 59767 63900.00000 0 4070617.466 15932681.225 19522477.532 10 0 59767 64800.00000 0 3448187.595 18133541.791 17622341.120 10 0 59767 65700.00000 0 3049316.275 20127356.969 15380403.391 10 0 59767 66600.00000 0 2848951.229 21855954.263 12839929.930 10 0 59767 67500.00000 0 2811917.445 23269074.543 10050046.109 10 0 59767 68400.00000 0 2894614.541 24326371.195 7064800.333 10 0 59767 69300.00000 0 3047080.875 24999016.288 3942125.037 10 0 59767 70200.00000 0 3215337.779 25270844.680 742714.705 10 0 59767 71100.00000 0 3343914.654 25138985.963 -2471157.495 10 0 59767 72000.00000 0 3378447.189 24613955.527 -5636860.906 10 0 59767 72900.00000 0 3268237.084 23719199.063 -8692641.579 10 0 59767 73800.00000 0 2968662.595 22490108.213 -11578843.929 10 0 59767 74700.00000 0 2443335.185 20972548.024 -14239094.056 10 0 59767 75600.00000 0 1665908.117 19220958.111 -16621419.756 10 0 59767 76500.00000 0 621457.633 17296107.947 -18679283.415 10 0 59767 77400.00000 0 -692624.129 15262601.879 -20372505.899 10 0 59767 78300.00000 0 -2266264.292 13186240.153 -21668062.106 10 0 59767 79200.00000 0 -4076889.327 11131348.373 -22540731.754 10 0 59767 80100.00000 0 -6090143.368 9158188.943 -22973592.276 10 0 59767 81000.00000 0 -8261114.774 7320564.087 -22958344.274 10 0 59767 81900.00000 0 -10536019.283 5663711.397 -22495463.674 10 0 59767 82800.00000 0 -12854268.436 4222579.918 -21594178.440 10 0 59767 83700.00000 0 -15150835.834 3020558.002 -20272271.421 10 0 59767 84600.00000 0 -17358821.326 2068704.538 -18555714.439 10 0 59767 85500.00000 0 -19412105.045 1365513.500 -16478142.162 10 0 59768 0.00000 0 -21247979.772 897218.899 -14080177.654 10 0 59768 900.00000 0 -22809652.472 638624.057 -11408622.709 10 0 59768 1800.00000 0 -24048508.424 554417.885 -8515533.384 10 0 59768 2700.00000 0 -24926047.560 600919.006 -5457195.442 10 0 59768 3600.00000 0 -25415410.916 728172.493 -2293023.713 10 0 59768 4500.00000 0 -25502436.201 882308.646 915593.851 10 0 59768 5400.00000 0 -25186200.165 1008063.110 4106484.482 10 0 59768 6300.00000 0 -24479027.171 1051351.493 7217888.346 10 0 59768 7200.00000 0 -23405965.520 961789.967 10189642.903 10 0 59768 8100.00000 0 -22003754.979 695056.192 12964331.870 10 0 59768 9000.00000 0 -20319329.673 214992.016 15488377.799 10 0 59768 9900.00000 0 -18407919.264 -504639.445 17713058.632 10 0 59768 10800.00000 0 -16330827.277 -1478815.310 19595430.365 10 0 59768 11700.00000 0 -14152978.176 -2710388.627 21099139.815 10 0 59768 12600.00000 0 -11940333.783 -4189734.422 22195113.467 10 0 59768 13500.00000 0 -9757284.530 -5894921.612 22862110.591 10 0 59768 14400.00000 0 -7664121.800 -7792404.954 23087131.022 10 0 59768 15300.00000 0 -5714694.296 -9838210.205 22865670.246 10 0 59768 16200.00000 0 -3954343.926 -11979565.633 22201816.806 10 0 59768 17100.00000 0 -2418205.499 -14156914.895 21108189.450 10 0 59768 18000.00000 0 -1129940.154 -16306230.303 19605713.934 10 0 59768 18900.00000 0 -100954.961 -18361532.927 17723242.035 10 0 59768 19800.00000 0 669858.482 -20257516.795 15497017.982 10 0 59768 20700.00000 0 1195854.659 -21932169.213 12970000.411 10 0 59768 21600.00000 0 1501844.213 -23329278.588 10191050.763 10 0 59768 22500.00000 0 1622815.478 -24400724.692 7214001.878 10 0 59768 23400.00000 0 1602220.165 -25108454.458 4096623.455 10 0 59768 24300.00000 0 1489894.864 -25426058.766 899503.538 10 0 59768 25200.00000 0 1339706.005 -25339881.850 -2315132.487 10 0 59768 26100.00000 0 1207018.412 -24849614.287 -5484641.894 10 0 59768 27000.00000 0 1146095.863 -23968342.357 -8547198.838 10 0 59768 27900.00000 0 1207545.656 -22722049.722 -11443017.263 10 0 59768 28800.00000 0 1435917.776 -21148590.984 -14115536.697 10 0 59768 29700.00000 0 1867563.057 -19296179.635 -16512545.881 10 0 59768 30600.00000 0 2528843.731 -17221453.898 -18587220.391 10 0 59768 31500.00000 0 3434774.589 -14987202.451 -20299052.219 10 0 59768 32400.00000 0 4588154.388 -12659846.620 -21614651.904 10 0 59768 33300.00000 0 5979225.830 -10306786.003 -22508406.626 10 0 59768 34200.00000 0 7585879.480 -7993720.284 -22962980.955 10 0 59768 35100.00000 0 9374393.499 -5782060.511 -22969650.590 10 0 59768 36000.00000 0 11300678.001 -3726538.909 -22528462.998 10 0 59768 36900.00000 0 13311971.139 -1873117.369 -21648222.652 10 0 59768 37800.00000 0 15348914.907 -257281.464 -20346302.259 10 0 59768 38700.00000 0 17347922.638 1097210.059 -18648284.912 10 0 59768 39600.00000 0 19243737.925 2179069.968 -16587445.533 10 0 59768 40500.00000 0 20972077.070 2989692.941 -14204083.143 10 0 59768 41400.00000 0 22472243.941 3542825.891 -11544718.281 10 0 59768 42300.00000 0 23689607.698 3863715.282 -8661172.542 10 0 59768 43200.00000 0 24577840.161 3987770.456 -5609549.248 10 0 59768 44100.00000 0 25100820.083 3958802.104 -2449135.918 10 0 59768 45000.00000 0 25234125.942 3826912.431 758749.412 10 0 59768 45900.00000 0 24966056.440 3646127.702 3951945.361 10 0 59768 46800.00000 0 24298137.793 3471874.021 7068644.946 10 0 59768 47700.00000 0 23245098.322 3358403.111 10048581.041 10 0 59768 48600.00000 0 21834312.907 3356276.301 12834177.517 10 0 59768 49500.00000 0 20104741.549 3510011.958 15371645.045 10 0 59768 50400.00000 0 18105406.852 3855994.294 17612001.797 10 0 59768 51300.00000 0 15893473.716 4420730.388 19512001.123 10 0 59768 52200.00000 0 13532010.324 5219527.728 21034950.098 10 0 59768 53100.00000 0 11087522.165 6255647.197 22151404.765 10 0 59768 54000.00000 0 8627359.599 7519967.131 22839730.214 10 0 59768 54900.00000 0 6217104.339 8991173.303 23086515.715 10 0 59768 55800.00000 0 3918041.058 10636468.385 22886837.468 10 0 59768 56700.00000 0 1784816.857 12412773.442 22244363.849 10 0 59768 57600.00000 0 -136616.113 14268373.937 21171300.464 10 0 59768 58500.00000 0 -1810690.652 16144944.419 19688174.787 10 0 59768 59400.00000 0 -3213477.596 17979870.195 17823462.811 10 0 59768 60300.00000 0 -4333449.878 19708771.609 15613062.782 10 0 59768 61200.00000 0 -5171725.183 21268127.287 13099623.971 10 0 59768 62100.00000 0 -5741776.196 22597887.781 10331741.259 10 0 59768 63000.00000 0 -6068619.500 23643970.428 7363029.154 10 0 59768 63900.00000 0 -6187516.102 24360530.099 4251091.787 10 0 59768 64800.00000 0 -6142237.478 24711909.050 1056407.911 10 0 59768 65700.00000 0 -5982969.922 24674181.846 -2158847.681 10 0 59768 66600.00000 0 -5763945.892 24236227.838 -5332022.908 10 0 59768 67500.00000 0 -5540903.486 23400283.511 -8401222.600 10 0 59768 68400.00000 0 -5368483.076 22181949.015 -11306532.594 10 0 59768 69300.00000 0 -5297673.447 20609646.669 -13991207.968 10 0 59768 70200.00000 0 -5373418.012 18723552.867 -16402800.264 10 0 59768 71100.00000 0 -5632485.075 16574047.622 -18494199.826 10 0 59768 72000.00000 0 -6101694.738 14219746.988 -20224571.109 10 0 59768 72900.00000 0 -6796579.652 11725201.565 -21560161.385 10 0 59768 73800.00000 0 -7720537.961 9158358.605 -22474966.152 10 0 59768 74700.00000 0 -8864515.296 6587895.364 -22951237.755 10 0 59768 75600.00000 0 -10207229.841 4080536.406 -22979827.361 10 0 59768 76500.00000 0 -11715930.936 1698467.924 -22560354.054 10 0 59768 77400.00000 0 -13347658.747 -503042.417 -21701198.567 10 0 59768 78300.00000 0 -15050951.126 -2477720.985 -20419322.862 10 0 59768 79200.00000 0 -16767924.863 -4189973.305 -18739920.324 10 0 59768 80100.00000 0 -18436642.699 -5616110.055 -16695904.818 10 0 59768 81000.00000 0 -19993665.732 -6745065.044 -14327249.934 10 0 59768 81900.00000 0 -21376683.320 -7578578.052 -11680192.661 10 0 59768 82800.00000 0 -22527109.707 -8130837.991 -8806318.306 10 0 59768 83700.00000 0 -23392538.500 -8427604.735 -5761545.570 10 0 59768 84600.00000 0 -23928952.585 -8504849.638 -2605032.389 10 0 59768 85500.00000 0 -24102597.699 -8406974.690 601975.481 99